EW9530 Weather Reports


time (UTC)temp
F
wind
direction
speed
knots
gust
knots
rain 1hr
in
rain 24hr
in
rain mn
in
humidity
%
barometer
mb
20260506174650 67 141 2.6 9.6 0.00 0.00 0.00 56 1012.2
20260506173155 68 129 3.5 10.4 0.00 0.00 0.00 55 1011.9
20260506171650 69 169 2.6 7.8 0.00 0.00 0.00 52 1011.8
20260506164652 71 143 0.9 8.7 0.00 0.02 0.00 43 1011.7
20260506163157 71 267 0.9 9.6 0.00 0.02 0.00 39 1011.6
20260506161649 70 167 2.6 10.4 0.00 0.02 0.00 40 1011.5
20260506154644 71 290 1.7 13.0 0.00 0.13 0.00 41 1011.5
20260506153135 71 103 0.0 13.9 0.00 0.13 0.00 40 1011.5
20260506151652 70 219 4.3 11.3 0.00 0.13 0.00 41 1011.7
20260506144651 70 245 5.2 10.4 0.00 0.27 0.00 40 1012.0
20260506143137 70 273 2.6 12.2 0.00 0.27 0.00 41 1012.1
20260506141650 70 261 2.6 11.3 0.00 0.27 0.00 41 1012.3
20260506140147 70 247 7.8 12.2 0.00 0.27 0.00 42 1012.4
20260506134650 69 215 5.2 12.2 0.00 0.27 0.00 40 1012.5
20260506133138 70 278 7.0 12.2 0.00 0.27 0.00 41 1012.6
20260506131651 69 304 1.7 7.8 0.00 0.27 0.00 43 1012.7
20260506124650 68 151 0.0 13.0 0.00 0.31 0.00 44 1012.8
20260506123139 68 212 0.0 11.3 0.00 0.31 0.00 45 1012.9
20260506121652 68 225 3.5 8.7 0.00 0.31 0.00 44 1013.0
20260506120149 67 281 3.5 11.3 0.00 0.31 0.00 45 1013.1
20260506114650 67 248 5.2 13.9 0.00 0.32 0.00 48 1013.1
20260506113136 66 189 1.7 12.2 0.00 0.32 0.00 48 1013.3
20260506111650 66 193 0.9 3.5 0.00 0.32 0.00 58 1013.5
20260506110148 65 132 0.0 2.6 0.00 0.32 0.00 59 1013.6
20260506104653 65 217 1.7 5.2 0.00 0.32 0.00 62 1013.6
20260506103138 63 34 2.6 7.0 0.00 0.32 0.00 63 1014.0
20260506101651 63 306 0.9 7.0 0.00 0.32 0.00 64 1014.0
20260506100152 61 97 1.7 7.0 0.00 0.32 0.00 66 1014.2
20260506094654 61 45 1.7 5.2 0.00 0.32 0.00 67 1014.4
20260506093155 60 68 1.7 6.1 0.00 0.32 0.00 68 1014.5
20260506091652 59 40 0.9 7.0 0.00 0.32 0.00 71 1014.6
20260506090149 59 63 0.0 7.0 0.00 0.32 0.00 73 1014.5
20260506084650 57 21 2.6 7.8 0.00 0.32 0.00 74 1014.6
20260506083156 56 91 3.5 7.8 0.00 0.32 0.00 76 1014.5
20260506081652 56 67 4.3 9.6 0.00 0.32 0.00 78 1014.5
20260506073156 51 332 0.9 5.2 0.00 0.32 0.00 96 1014.5
20260506071650 50 48 1.7 5.2 0.00 0.32 0.00 96 1014.5
20260506070149 49 39 0.9 2.6 0.00 0.32 0.00 96 1014.5
20260506061653 46 21 1.7 5.2 0.00 0.32 0.00 96 1014.5
20260506050149 45 5 1.7 4.3 0.00 0.32 0.00 95 1013.9
20260506044650 46 312 0.0 0.0 0.00 0.32 0.00 95 1013.7
20260506043154 46 10 0.0 0.0 0.00 0.32 0.00 95 1013.6
20260506041652 46 10 0.0 0.0 0.00 0.32 0.00 95 1013.6
20260506040149 46 10 0.0 2.6 0.00 0.32 0.00 95 1013.4
20260506034651 46 42 1.7 5.2 0.00 0.32 0.00 95 1013.3
20260506033155 47 26 2.6 7.0 0.00 0.32 0.00 95 1013.2
20260506031650 47 15 1.7 5.2 0.00 0.32 0.00 95 1013.2
20260506024652 48 9 2.6 5.2 0.00 0.32 0.00 95 1013.1
20260506023158 48 48 1.7 4.3 0.00 0.32 0.00 95 1013.1
20260506021651 49 346 0.9 3.5 0.00 0.32 0.00 95 1013.0
20260506020149 49 350 0.0 4.3 0.00 0.32 0.00 95 1012.9
20260506014652 49 11 1.7 4.3 0.00 0.32 0.00 95 1012.9
20260506013155 49 10 0.9 7.0 0.00 0.32 0.00 95 1012.8
20260506011651 48 16 0.0 2.6 0.00 0.32 0.00 94 1012.8
20260506010203 49 11 0.0 2.6 0.00 0.32 0.00 94 1012.9
20260506004650 49 11 0.9 3.5 0.00 0.32 0.00 94 1013.1
20260506003154 49 36 2.6 7.0 0.00 0.32 0.00 94 1013.2
20260506001651 49 39 3.5 5.2 0.00 0.32 0.00 94 1013.3
20260506000151 49 42 0.9 3.5 0.00 0.32 0.00 94 1013.3
20260505234651 50 40 0.0 0.0 0.00 0.32 0.00 94 1013.3
20260505233156 50 40 0.0 3.5 0.00 0.32 0.00 94 1013.2
20260505231652 50 39 0.9 4.3 0.00 0.32 0.00 94 1013.2
20260505224654 51 63 0.0 0.0 0.00 0.32 0.00 94 1013.1
20260505223155 51 63 0.0 3.5 0.00 0.32 0.00 94 1013.1
20260505221652 51 46 0.9 4.3 0.00 0.32 0.00 93 1013.4
20260505214651 52 45 0.0 0.0 0.00 0.32 0.32 93 1013.6
20260505213156 52 45 0.0 0.0 0.00 0.32 0.32 93 1013.6
20260505211651 52 45 0.0 0.0 0.00 0.32 0.32 93 1013.5
20260505204647 52 48 0.0 2.6 0.00 0.33 0.32 93 1013.3
20260505203157 53 267 0.0 0.0 0.00 0.33 0.32 93 1013.1
20260505201651 53 267 0.0 0.0 0.00 0.33 0.32 92 1012.8
20260505194651 53 184 0.0 2.6 0.00 0.35 0.32 91 1012.3
20260505193157 54 184 0.0 0.0 0.00 0.35 0.32 91 1012.1
20260505191608 54 223 0.0 0.0 0.00 0.35 0.32 90 1011.8
20260505190148 55 246 0.0 1.7 0.00 0.35 0.32 90 1011.9
20260505184651 55 46 0.0 0.0 0.00 0.39 0.32 89 1012.0
20260505183138 56 46 0.0 1.7 0.00 0.39 0.32 88 1012.1
20260505181652 56 329 0.0 5.2 0.00 0.39 0.32 87 1012.0